DAE200 SGAS-SCFA

Flight info

Callsign DAE200
Flight time 2h 39m
Altitude 34000
Route KALOM KALOM UM789 LOA DCT TATIO EKENO5
Aircraft B752/M-SDE2E3FGHIJ3J4J7RWXY/LB1

Departure

Time 2026-04-17 16:26
Airport Silvio Pettirossi International Airport (SGAS)

Arrival

Time 2026-04-17 19:06
Airport Andrés Sabella Gálvez International Airport (SCFA)
Time Latitude Longitude Altitude Speed Heading
2026-04-17 15:34 -25.24415 -57.51603 302 ft 0 kts 343°
2026-04-17 16:20 -25.24412 -57.51604 302 ft 1 kts 343°
2026-04-17 16:20 -25.24403 -57.51608 302 ft 0 kts 343°
2026-04-17 16:21 -25.24379 -57.51615 302 ft 7 kts 343°
2026-04-17 16:22 -25.24356 -57.51689 302 ft 14 kts 252°
2026-04-17 16:22 -25.24412 -57.51783 302 ft 15 kts 231°
2026-04-17 16:22 -25.24513 -57.51825 302 ft 16 kts 192°
2026-04-17 16:22 -25.24630 -57.51852 302 ft 18 kts 192°
2026-04-17 16:23 -25.24764 -57.51885 302 ft 20 kts 192°
2026-04-17 16:23 -25.24911 -57.51920 302 ft 22 kts 192°
2026-04-17 16:23 -25.25069 -57.51956 302 ft 24 kts 194°
2026-04-17 16:23 -25.25230 -57.51996 302 ft 22 kts 192°
2026-04-17 16:24 -25.25377 -57.52030 302 ft 20 kts 192°
2026-04-17 16:24 -25.25483 -57.52067 302 ft 9 kts 240°
2026-04-17 16:24 -25.25481 -57.52143 302 ft 11 kts 278°
2026-04-17 16:24 -25.25462 -57.52237 302 ft 13 kts 303°
2026-04-17 16:25 -25.25372 -57.52251 302 ft 14 kts 13°
2026-04-17 16:25 -25.25335 -57.52242 302 ft 5 kts 13°
2026-04-17 16:25 -25.25164 -57.52202 302 ft 50 kts 11°
2026-04-17 16:25 -25.24634 -57.52070 302 ft 104 kts 13°
2026-04-17 16:26 -25.24087 -57.51938 303 ft 137 kts 14°
2026-04-17 16:26 -25.22621 -57.51593 472 ft 179 kts 13°
2026-04-17 16:26 -25.21341 -57.51282 835 ft 196 kts 14°
2026-04-17 16:26 -25.19949 -57.50934 1199 ft 214 kts 13°
2026-04-17 16:27 -25.18487 -57.50576 1730 ft 208 kts 13°
2026-04-17 16:27 -25.17082 -57.50235 1913 ft 211 kts 13°
2026-04-17 16:27 -25.15643 -57.49881 2118 ft 211 kts 13°
2026-04-17 16:27 -25.14178 -57.49560 2232 ft 222 kts
2026-04-17 16:28 -25.12630 -57.49896 2247 ft 243 kts 332°
2026-04-17 16:28 -25.11370 -57.51192 2464 ft 256 kts 301°
2026-04-17 16:28 -25.10815 -57.53114 2574 ft 272 kts 271°
2026-04-17 16:28 -25.11207 -57.55155 3073 ft 271 kts 242°
2026-04-17 16:29 -25.12298 -57.56897 3503 ft 274 kts 233°
2026-04-17 16:29 -25.13309 -57.58590 3956 ft 276 kts 239°
2026-04-17 16:29 -25.14292 -57.60527 4433 ft 278 kts 242°
2026-04-17 16:29 -25.15179 -57.62423 4891 ft 280 kts 244°
2026-04-17 16:30 -25.16048 -57.64377 5351 ft 282 kts 244°
2026-04-17 16:30 -25.16898 -57.66347 5802 ft 284 kts 245°
2026-04-17 16:30 -25.17731 -57.68318 6242 ft 286 kts 245°
2026-04-17 16:30 -25.18571 -57.70330 6684 ft 288 kts 246°
2026-04-17 16:31 -25.19412 -57.72363 7126 ft 290 kts 246°
2026-04-17 16:31 -25.20256 -57.74419 7567 ft 292 kts 246°
2026-04-17 16:31 -25.21091 -57.76467 8003 ft 294 kts 246°
2026-04-17 16:31 -25.21811 -57.78597 8434 ft 294 kts 262°
2026-04-17 16:32 -25.21851 -57.80862 8860 ft 294 kts 276°
2026-04-17 16:32 -25.21678 -57.83104 9313 ft 296 kts 276°
2026-04-17 16:32 -25.21500 -57.85403 9759 ft 297 kts 277°
2026-04-17 16:32 -25.21311 -57.87702 10190 ft 300 kts 277°
2026-04-17 16:33 -25.21111 -57.90046 10239 ft 316 kts 277°
2026-04-17 16:33 -25.20893 -57.92544 10256 ft 333 kts 277°
2026-04-17 16:33 -25.20659 -57.95187 10270 ft 350 kts 277°
2026-04-17 16:33 -25.20413 -57.97945 10292 ft 365 kts 277°
2026-04-17 16:34 -25.20161 -58.00750 10721 ft 367 kts 277°
2026-04-17 16:34 -25.19909 -58.03538 11177 ft 368 kts 277°
2026-04-17 16:34 -25.19650 -58.06359 11582 ft 371 kts 277°
2026-04-17 16:34 -25.19383 -58.09250 12021 ft 372 kts 277°
2026-04-17 16:35 -25.19121 -58.12063 12410 ft 374 kts 277°
2026-04-17 16:35 -25.18853 -58.14911 12802 ft 376 kts 278°
2026-04-17 16:35 -25.18571 -58.17865 13198 ft 378 kts 278°
2026-04-17 16:35 -25.18292 -58.20767 13581 ft 379 kts 278°
2026-04-17 16:36 -25.18013 -58.23650 13950 ft 381 kts 278°
2026-04-17 16:36 -25.17728 -58.26580 14314 ft 382 kts 278°
2026-04-17 16:36 -25.17440 -58.29547 14682 ft 384 kts 279°
2026-04-17 16:36 -25.17154 -58.32481 15031 ft 385 kts 279°
2026-04-17 16:37 -25.16863 -58.35455 15379 ft 386 kts 279°
2026-04-17 16:37 -25.16574 -58.38412 15723 ft 387 kts 279°
2026-04-17 16:37 -25.16281 -58.41394 16056 ft 389 kts 279°
2026-04-17 16:37 -25.15987 -58.44381 16393 ft 390 kts 279°
2026-04-17 16:38 -25.15700 -58.47296 16721 ft 391 kts 279°
2026-04-17 16:38 -25.15399 -58.50346 17057 ft 392 kts 280°
2026-04-17 16:38 -25.15108 -58.53286 17380 ft 393 kts 280°
2026-04-17 16:38 -25.14808 -58.56309 17717 ft 394 kts 280°
2026-04-17 16:39 -25.14504 -58.59369 18045 ft 395 kts 280°
2026-04-17 16:39 -25.14200 -58.62418 18369 ft 395 kts 280°
2026-04-17 16:39 -25.13896 -58.65469 18691 ft 396 kts 281°
2026-04-17 16:39 -25.13587 -58.68558 19031 ft 396 kts 281°
2026-04-17 16:40 -25.13271 -58.71707 19351 ft 397 kts 281°
2026-04-17 16:40 -25.12958 -58.74825 19677 ft 398 kts 281°
2026-04-17 16:40 -25.12644 -58.77946 19998 ft 399 kts 281°
2026-04-17 16:40 -25.12334 -58.81014 20317 ft 399 kts 281°
2026-04-17 16:41 -25.12023 -58.84092 20551 ft 402 kts 281°
2026-04-17 16:41 -25.11706 -58.87215 20793 ft 405 kts 281°
2026-04-17 16:41 -25.11396 -58.90272 21039 ft 407 kts 281°
2026-04-17 16:41 -25.11077 -58.93403 21263 ft 410 kts 281°
2026-04-17 16:42 -25.10754 -58.96573 21498 ft 412 kts 281°
2026-04-17 16:42 -25.10441 -58.99630 21701 ft 415 kts 282°
2026-04-17 16:42 -25.10101 -59.02958 21917 ft 419 kts 282°
2026-04-17 16:42 -25.09775 -59.06128 22136 ft 421 kts 282°
2026-04-17 16:43 -25.09446 -59.09344 22465 ft 421 kts 282°
2026-04-17 16:43 -25.09113 -59.12581 22749 ft 423 kts 282°
2026-04-17 16:43 -25.08781 -59.15796 23037 ft 424 kts 282°
2026-04-17 16:43 -25.08447 -59.19025 23327 ft 425 kts 282°
2026-04-17 16:44 -25.08108 -59.22294 23611 ft 425 kts 282°
2026-04-17 16:44 -25.07772 -59.25527 23893 ft 426 kts 282°
2026-04-17 16:44 -25.07431 -59.28805 24173 ft 427 kts 282°
2026-04-17 16:44 -25.07092 -59.32052 24448 ft 428 kts 283°
2026-04-17 16:45 -25.06748 -59.35341 24727 ft 428 kts 283°
2026-04-17 16:45 -25.06407 -59.38591 24993 ft 429 kts 283°
2026-04-17 16:45 -25.06063 -59.41871 25264 ft 429 kts 283°
2026-04-17 16:45 -25.05716 -59.45164 25529 ft 430 kts 283°
2026-04-17 16:46 -25.05371 -59.48442 25785 ft 430 kts 283°
2026-04-17 16:46 -25.05097 -59.51027 25986 ft 430 kts 283°
2026-04-17 16:46 -25.04682 -59.54952 26284 ft 430 kts 283°
2026-04-17 16:46 -25.04331 -59.58252 26534 ft 430 kts 283°
2026-04-17 16:47 -25.03982 -59.61537 26778 ft 431 kts 283°
2026-04-17 16:47 -25.03634 -59.64806 27020 ft 430 kts 283°
2026-04-17 16:47 -25.03277 -59.68148 27299 ft 430 kts 284°
2026-04-17 16:47 -25.02929 -59.71516 27552 ft 430 kts 283°
2026-04-17 16:48 -25.02609 -59.74835 27798 ft 430 kts 283°
2026-04-17 16:48 -25.02284 -59.78183 28063 ft 430 kts 283°
2026-04-17 16:48 -25.01984 -59.81266 28299 ft 429 kts 283°
2026-04-17 16:48 -25.01647 -59.84721 28567 ft 429 kts 283°
2026-04-17 16:49 -25.01327 -59.87993 28825 ft 428 kts 283°
2026-04-17 16:49 -25.01003 -59.91289 29085 ft 427 kts 283°
2026-04-17 16:49 -25.00683 -59.94546 29345 ft 427 kts 283°
2026-04-17 16:49 -25.00362 -59.97807 29599 ft 426 kts 283°
2026-04-17 16:50 -25.00042 -60.01042 29850 ft 425 kts 283°
2026-04-17 16:50 -24.99730 -60.04195 30092 ft 424 kts 283°
2026-04-17 16:50 -24.99406 -60.07463 30338 ft 423 kts 283°
2026-04-17 16:50 -24.99058 -60.10675 30956 ft 409 kts 276°
2026-04-17 16:51 -24.98754 -60.13649 32090 ft 388 kts 276°
2026-04-17 16:51 -24.98567 -60.15654 32214 ft 389 kts 276°
2026-04-17 16:51 -24.98179 -60.19632 32372 ft 391 kts 277°
2026-04-17 16:51 -24.97896 -60.22516 32704 ft 387 kts 277°
2026-04-17 16:52 -24.97605 -60.25456 32984 ft 385 kts 278°
2026-04-17 16:52 -24.97312 -60.28391 33241 ft 384 kts 278°
2026-04-17 16:52 -24.97017 -60.31341 33514 ft 382 kts 279°
2026-04-17 16:52 -24.96727 -60.34221 33776 ft 380 kts 279°
2026-04-17 16:53 -24.96434 -60.37121 33952 ft 380 kts 280°
2026-04-17 16:53 -24.96140 -60.40015 33952 ft 379 kts 280°
2026-04-17 16:53 -24.95550 -60.45810 33951 ft 377 kts 280°
2026-04-17 16:54 -24.94966 -60.51516 33949 ft 378 kts 280°
2026-04-17 16:54 -24.94378 -60.57252 33948 ft 377 kts 280°
2026-04-17 16:55 -24.93897 -60.61924 33947 ft 377 kts 280°
2026-04-17 16:55 -24.93192 -60.68753 33968 ft 378 kts 280°
2026-04-17 16:56 -24.92580 -60.74645 33966 ft 377 kts 280°
2026-04-17 16:56 -24.91985 -60.80359 33965 ft 377 kts 280°
2026-04-17 16:57 -24.91380 -60.86137 33963 ft 377 kts 280°
2026-04-17 16:57 -24.90779 -60.91866 33962 ft 377 kts 280°
2026-04-17 16:58 -24.90173 -60.97612 33961 ft 377 kts 280°
2026-04-17 16:58 -24.89553 -61.03465 33971 ft 378 kts 280°
2026-04-17 16:59 -24.88943 -61.09210 33969 ft 378 kts 280°
2026-04-17 16:59 -24.88334 -61.14923 33968 ft 379 kts 280°
2026-04-17 17:00 -24.87711 -61.20739 33966 ft 379 kts 280°
2026-04-17 17:00 -24.87086 -61.26557 33965 ft 379 kts 280°
2026-04-17 17:01 -24.86464 -61.32331 33964 ft 379 kts 280°
2026-04-17 17:01 -24.85839 -61.38104 33962 ft 379 kts 280°
2026-04-17 17:02 -24.85207 -61.43922 33961 ft 379 kts 280°
2026-04-17 17:02 -24.84575 -61.49729 33978 ft 379 kts 280°
2026-04-17 17:03 -24.83941 -61.55518 34003 ft 379 kts 280°
2026-04-17 17:03 -24.83310 -61.61266 34027 ft 379 kts 280°
2026-04-17 17:04 -24.82671 -61.67062 34073 ft 379 kts 281°
2026-04-17 17:04 -24.82015 -61.73002 34084 ft 379 kts 281°
2026-04-17 17:05 -24.80936 -61.78597 34085 ft 377 kts 287°
2026-04-17 17:05 -24.79585 -61.84139 34081 ft 377 kts 287°
2026-04-17 17:06 -24.78213 -61.89735 34080 ft 377 kts 287°
2026-04-17 17:06 -24.77262 -61.95464 34081 ft 379 kts 280°
2026-04-17 17:07 -24.76613 -62.01218 34077 ft 379 kts 281°
2026-04-17 17:07 -24.75967 -62.06979 34076 ft 379 kts 281°
2026-04-17 17:08 -24.75324 -62.12731 34075 ft 379 kts 281°
2026-04-17 17:08 -24.74672 -62.18559 34074 ft 379 kts 281°
2026-04-17 17:09 -24.74029 -62.24299 34072 ft 379 kts 281°
2026-04-17 17:09 -24.73375 -62.30106 34071 ft 379 kts 281°
2026-04-17 17:10 -24.72728 -62.35847 34070 ft 379 kts 281°
2026-04-17 17:10 -24.72075 -62.41611 34068 ft 379 kts 281°
2026-04-17 17:11 -24.71420 -62.47380 34067 ft 379 kts 281°
2026-04-17 17:11 -24.70770 -62.53081 34066 ft 379 kts 281°
2026-04-17 17:12 -24.70113 -62.58861 34064 ft 379 kts 281°
2026-04-17 17:12 -24.69453 -62.64638 34063 ft 380 kts 281°
2026-04-17 17:13 -24.68779 -62.70525 34083 ft 380 kts 281°
2026-04-17 17:13 -24.68098 -62.76445 34082 ft 379 kts 281°
2026-04-17 17:14 -24.67431 -62.82227 34081 ft 379 kts 281°
2026-04-17 17:15 -24.66425 -62.90907 34078 ft 381 kts 281°
2026-04-17 17:15 -24.65742 -62.96766 34078 ft 389 kts 281°
2026-04-17 17:16 -24.65047 -63.02712 34076 ft 396 kts 280°
2026-04-17 17:16 -24.64333 -63.08802 34075 ft 403 kts 280°
2026-04-17 17:17 -24.63611 -63.14949 34075 ft 409 kts 280°
2026-04-17 17:17 -24.62881 -63.21144 34072 ft 407 kts 280°
2026-04-17 17:18 -24.62164 -63.27213 34072 ft 407 kts 280°
2026-04-17 17:18 -24.61426 -63.33485 34071 ft 407 kts 280°
2026-04-17 17:19 -24.60698 -63.39653 34070 ft 407 kts 280°
2026-04-17 17:19 -24.59964 -63.45841 34069 ft 407 kts 280°
2026-04-17 17:20 -24.59232 -63.51990 34068 ft 407 kts 280°
2026-04-17 17:20 -24.58494 -63.58174 34067 ft 407 kts 280°
2026-04-17 17:21 -24.57753 -63.64358 34066 ft 407 kts 280°
2026-04-17 17:21 -24.57005 -63.70585 34080 ft 407 kts 280°
2026-04-17 17:22 -24.56249 -63.76851 34079 ft 407 kts 280°
2026-04-17 17:22 -24.55493 -63.83075 34022 ft 406 kts 279°
2026-04-17 17:23 -24.54746 -63.89234 34023 ft 406 kts 279°
2026-04-17 17:23 -24.53997 -63.95380 34022 ft 406 kts 279°
2026-04-17 17:24 -24.53236 -64.01599 34021 ft 406 kts 279°
2026-04-17 17:24 -24.52485 -64.07725 34020 ft 406 kts 279°
2026-04-17 17:25 -24.51737 -64.13905 34019 ft 406 kts 279°
2026-04-17 17:25 -24.50987 -64.20085 34018 ft 406 kts 279°
2026-04-17 17:26 -24.50234 -64.26260 34017 ft 406 kts 279°
2026-04-17 17:26 -24.49487 -64.32365 34016 ft 406 kts 279°
2026-04-17 17:27 -24.48730 -64.38531 34015 ft 406 kts 279°
2026-04-17 17:27 -24.47973 -64.44670 34014 ft 406 kts 279°
2026-04-17 17:28 -24.47172 -64.50796 34013 ft 406 kts 280°
2026-04-17 17:28 -24.46362 -64.56933 34012 ft 406 kts 280°
2026-04-17 17:29 -24.45552 -64.63049 34011 ft 406 kts 280°
2026-04-17 17:29 -24.44730 -64.69238 34026 ft 406 kts 280°
2026-04-17 17:30 -24.43900 -64.75474 34024 ft 406 kts 280°
2026-04-17 17:30 -24.43069 -64.81690 34023 ft 406 kts 280°
2026-04-17 17:31 -24.42236 -64.87906 34022 ft 409 kts 281°
2026-04-17 17:31 -24.41406 -64.94079 34021 ft 410 kts 281°
2026-04-17 17:32 -24.40560 -65.00352 34020 ft 413 kts 281°
2026-04-17 17:32 -24.39696 -65.06611 34019 ft 414 kts 283°
2026-04-17 17:33 -24.37691 -65.12521 34024 ft 410 kts 297°
2026-04-17 17:33 -24.35065 -65.18092 34017 ft 411 kts 297°
2026-04-17 17:34 -24.32416 -65.23647 34016 ft 411 kts 297°
2026-04-17 17:34 -24.29722 -65.29256 34015 ft 410 kts 298°
2026-04-17 17:35 -24.27098 -65.34700 34014 ft 411 kts 297°
2026-04-17 17:35 -24.24405 -65.40276 34013 ft 410 kts 298°
2026-04-17 17:36 -24.21727 -65.45810 34013 ft 411 kts 298°
2026-04-17 17:36 -24.19043 -65.51349 34011 ft 411 kts 298°
2026-04-17 17:37 -24.16351 -65.56899 34011 ft 411 kts 298°
2026-04-17 17:37 -24.13658 -65.62445 34009 ft 411 kts 298°
2026-04-17 17:38 -24.10939 -65.68035 34023 ft 411 kts 298°
2026-04-17 17:38 -24.08227 -65.73605 34021 ft 410 kts 298°
2026-04-17 17:39 -24.05508 -65.79183 34022 ft 411 kts 298°
2026-04-17 17:39 -24.02815 -65.84703 34023 ft 411 kts 298°
2026-04-17 17:40 -24.00114 -65.90231 34020 ft 410 kts 298°
2026-04-17 17:40 -23.97430 -65.95717 34017 ft 411 kts 298°
2026-04-17 17:41 -23.94706 -66.01281 34016 ft 411 kts 298°
2026-04-17 17:41 -23.91996 -66.06809 34027 ft 411 kts 298°
2026-04-17 17:42 -23.89286 -66.12331 34045 ft 410 kts 298°
2026-04-17 17:42 -23.86594 -66.17809 34058 ft 411 kts 298°
2026-04-17 17:43 -23.83876 -66.23335 34069 ft 410 kts 298°
2026-04-17 17:43 -23.81119 -66.28933 34067 ft 410 kts 298°
2026-04-17 17:44 -23.78576 -66.34090 34063 ft 410 kts 298°
2026-04-17 17:44 -23.75849 -66.39614 34062 ft 411 kts 298°
2026-04-17 17:45 -23.73134 -66.45111 34065 ft 411 kts 298°
2026-04-17 17:45 -23.70426 -66.50584 34070 ft 411 kts 298°
2026-04-17 17:46 -23.67709 -66.56071 34068 ft 410 kts 298°
2026-04-17 17:46 -23.64970 -66.61594 34064 ft 411 kts 298°
2026-04-17 17:47 -23.62243 -66.67087 34076 ft 411 kts 298°
2026-04-17 17:47 -23.59473 -66.72663 34078 ft 410 kts 298°
2026-04-17 17:48 -23.56700 -66.78236 34079 ft 411 kts 298°
2026-04-17 17:48 -23.53952 -66.83755 34077 ft 410 kts 298°
2026-04-17 17:49 -23.51219 -66.89235 34076 ft 410 kts 298°
2026-04-17 17:49 -23.48487 -66.94707 34075 ft 411 kts 298°
2026-04-17 17:50 -23.45754 -67.00176 34075 ft 411 kts 298°
2026-04-17 17:50 -23.43002 -67.05675 34074 ft 412 kts 298°
2026-04-17 17:51 -23.40267 -67.11135 34072 ft 413 kts 298°
2026-04-17 17:51 -23.37509 -67.16631 34072 ft 414 kts 298°
2026-04-17 17:52 -23.34736 -67.22145 34071 ft 415 kts 297°
2026-04-17 17:52 -23.31961 -67.27657 34070 ft 415 kts 297°
2026-04-17 17:53 -23.29169 -67.33196 34069 ft 415 kts 297°
2026-04-17 17:53 -23.26387 -67.38710 34068 ft 415 kts 297°
2026-04-17 17:54 -23.23606 -67.44215 34067 ft 415 kts 297°
2026-04-17 17:54 -23.20825 -67.49714 34066 ft 415 kts 297°
2026-04-17 17:55 -23.18037 -67.55221 34065 ft 415 kts 297°
2026-04-17 17:55 -23.15265 -67.60691 34065 ft 415 kts 297°
2026-04-17 17:56 -23.12457 -67.66225 34073 ft 415 kts 298°
2026-04-17 17:56 -23.09655 -67.71741 34076 ft 415 kts 298°
2026-04-17 17:57 -23.06821 -67.77312 34075 ft 414 kts 298°
2026-04-17 17:57 -23.04033 -67.82789 34075 ft 414 kts 298°
2026-04-17 17:58 -23.01250 -67.88249 34073 ft 411 kts 298°
2026-04-17 17:58 -22.98512 -67.93616 34073 ft 406 kts 298°
2026-04-17 17:59 -22.95784 -67.98955 34071 ft 402 kts 297°
2026-04-17 17:59 -22.93086 -68.04232 34070 ft 398 kts 297°
2026-04-17 18:00 -22.90405 -68.09471 34069 ft 395 kts 297°
2026-04-17 18:00 -22.87737 -68.14677 34074 ft 390 kts 297°
2026-04-17 18:01 -22.85068 -68.19884 34074 ft 391 kts 297°
2026-04-17 18:01 -22.82416 -68.25050 34072 ft 391 kts 297°
2026-04-17 18:02 -22.80200 -68.29363 34071 ft 390 kts 297°
2026-04-17 18:02 -22.77114 -68.35363 34070 ft 391 kts 297°
2026-04-17 18:03 -22.74475 -68.40488 34069 ft 391 kts 297°
2026-04-17 18:03 -22.71816 -68.45657 34068 ft 390 kts 297°
2026-04-17 18:04 -22.69182 -68.50778 34067 ft 391 kts 297°
2026-04-17 18:04 -22.66540 -68.55913 34065 ft 390 kts 297°
2026-04-17 18:05 -22.63902 -68.61034 34065 ft 391 kts 297°
2026-04-17 18:05 -22.61247 -68.66181 34076 ft 390 kts 297°
2026-04-17 18:06 -22.58570 -68.71367 34081 ft 391 kts 297°
2026-04-17 18:06 -22.55926 -68.76483 34080 ft 390 kts 297°
2026-04-17 18:07 -22.53297 -68.81564 34079 ft 390 kts 297°
2026-04-17 18:07 -22.50341 -68.86575 34084 ft 395 kts 308°
2026-04-17 18:08 -22.46228 -68.90195 34082 ft 406 kts 321°
2026-04-17 18:08 -22.41315 -68.93626 34076 ft 408 kts 321°
2026-04-17 18:09 -22.36523 -68.96944 34074 ft 409 kts 322°
2026-04-17 18:09 -22.31674 -69.00285 34073 ft 411 kts 322°
2026-04-17 18:10 -22.26846 -69.03601 34073 ft 413 kts 322°
2026-04-17 18:10 -22.21917 -69.06982 34069 ft 414 kts 323°
2026-04-17 18:11 -22.17012 -69.10342 34061 ft 417 kts 323°
2026-04-17 18:11 -22.12112 -69.13697 34053 ft 418 kts 323°
2026-04-17 18:12 -22.07179 -69.17069 34048 ft 418 kts 323°
2026-04-17 18:12 -22.02681 -69.20142 34047 ft 418 kts 323°
2026-04-17 18:13 -21.97739 -69.23517 34046 ft 418 kts 323°
2026-04-17 18:13 -21.92820 -69.26872 34042 ft 418 kts 323°
2026-04-17 18:14 -21.87860 -69.30253 34046 ft 417 kts 323°
2026-04-17 18:14 -21.82883 -69.33643 34046 ft 418 kts 323°
2026-04-17 18:15 -21.77815 -69.37089 34045 ft 418 kts 323°
2026-04-17 18:15 -21.72900 -69.40428 34044 ft 418 kts 323°
2026-04-17 18:16 -21.67962 -69.43778 34031 ft 411 kts 323°
2026-04-17 18:16 -21.65614 -69.45368 33869 ft 399 kts 323°
2026-04-17 18:16 -21.63237 -69.46981 33342 ft 395 kts 323°
2026-04-17 18:16 -21.61041 -69.48471 32868 ft 392 kts 324°
2026-04-17 18:17 -21.58770 -69.50011 32389 ft 391 kts 324°
2026-04-17 18:17 -21.54132 -69.53155 31436 ft 396 kts 325°
2026-04-17 18:17 -21.51838 -69.54707 30972 ft 399 kts 325°
2026-04-17 18:18 -21.49542 -69.56261 30512 ft 400 kts 326°
2026-04-17 18:18 -21.47087 -69.57921 30026 ft 402 kts 326°
2026-04-17 18:18 -21.44706 -69.59531 29559 ft 403 kts 326°
2026-04-17 18:18 -21.42313 -69.61147 29091 ft 401 kts 327°
2026-04-17 18:19 -21.39961 -69.62736 28635 ft 399 kts 327°
2026-04-17 18:19 -21.37603 -69.64327 28184 ft 397 kts 327°
2026-04-17 18:19 -21.35292 -69.65887 27751 ft 395 kts 328°
2026-04-17 18:19 -21.32947 -69.67470 27317 ft 394 kts 328°
2026-04-17 18:20 -21.30682 -69.68997 26896 ft 392 kts 328°
2026-04-17 18:20 -21.28300 -69.70602 26452 ft 390 kts 328°
2026-04-17 18:20 -21.26032 -69.72131 26030 ft 389 kts 328°
2026-04-17 18:20 -21.23758 -69.73663 25606 ft 387 kts 329°
2026-04-17 18:21 -21.22194 -69.74715 25315 ft 387 kts 329°
2026-04-17 18:21 -21.19224 -69.76882 24752 ft 387 kts 321°
2026-04-17 18:21 -21.17334 -69.78938 24337 ft 389 kts 311°
2026-04-17 18:21 -21.15798 -69.81255 23916 ft 390 kts 307°
2026-04-17 18:22 -21.14784 -69.82888 23618 ft 389 kts 307°
2026-04-17 18:22 -21.12786 -69.86114 23033 ft 388 kts 307°
2026-04-17 18:22 -21.11310 -69.88514 22603 ft 387 kts 306°
2026-04-17 18:22 -21.09843 -69.90906 22173 ft 382 kts 306°
2026-04-17 18:23 -21.08889 -69.92466 21895 ft 378 kts 306°
2026-04-17 18:23 -21.06976 -69.95593 21340 ft 373 kts 306°
2026-04-17 18:23 -21.05553 -69.97920 20929 ft 371 kts 305°
2026-04-17 18:23 -21.04154 -70.00208 20526 ft 368 kts 305°
2026-04-17 18:24 -21.03219 -70.01736 20257 ft 366 kts 304°
2026-04-17 18:24 -21.01381 -70.04742 19730 ft 363 kts 304°
2026-04-17 18:24 -21.00002 -70.06993 19336 ft 360 kts 304°
2026-04-17 18:24 -20.98618 -70.09253 18941 ft 359 kts 303°
2026-04-17 18:25 -20.97711 -70.10735 18682 ft 358 kts 303°
2026-04-17 18:25 -20.95913 -70.13670 18174 ft 356 kts 302°
2026-04-17 18:25 -20.94648 -70.15923 17792 ft 355 kts 298°
2026-04-17 18:25 -20.93463 -70.18251 17392 ft 355 kts 298°
2026-04-17 18:26 -20.92272 -70.20564 16997 ft 354 kts 298°
2026-04-17 18:26 -20.91091 -70.22851 16608 ft 353 kts 298°
2026-04-17 18:26 -20.89903 -70.25146 16220 ft 353 kts 298°
2026-04-17 18:26 -20.88681 -70.27502 15826 ft 352 kts 298°
2026-04-17 18:27 -20.87399 -70.29773 15436 ft 352 kts 307°
2026-04-17 18:27 -20.85614 -70.31650 15059 ft 353 kts 323°
2026-04-17 18:27 -20.83445 -70.32872 14675 ft 356 kts 339°
2026-04-17 18:27 -20.81012 -70.33398 14257 ft 358 kts 355°
2026-04-17 18:28 -20.78533 -70.33170 13845 ft 359 kts 11°
2026-04-17 18:28 -20.76152 -70.32484 13431 ft 358 kts 14°
2026-04-17 18:28 -20.73745 -70.31774 13006 ft 356 kts 14°
2026-04-17 18:28 -20.71377 -70.31084 12594 ft 354 kts 14°
2026-04-17 18:29 -20.69025 -70.30399 12191 ft 352 kts 14°
2026-04-17 18:29 -20.66654 -70.29710 11788 ft 350 kts 14°
2026-04-17 18:29 -20.64319 -70.29031 11394 ft 348 kts 14°
2026-04-17 18:29 -20.62000 -70.28359 11006 ft 346 kts 14°
2026-04-17 18:30 -20.59673 -70.27683 10620 ft 345 kts 14°
2026-04-17 18:30 -20.57342 -70.27007 10235 ft 342 kts 14°
2026-04-17 18:30 -20.55054 -70.26344 10039 ft 332 kts 14°
2026-04-17 18:30 -20.52898 -70.25718 10039 ft 317 kts 14°
2026-04-17 18:31 -20.51493 -70.25311 10039 ft 307 kts 14°
2026-04-17 18:31 -20.48806 -70.24532 10038 ft 288 kts 14°
2026-04-17 18:31 -20.46914 -70.23985 10030 ft 281 kts 14°
2026-04-17 18:31 -20.45005 -70.23432 9707 ft 286 kts 14°
2026-04-17 18:32 -20.43735 -70.23064 9479 ft 286 kts 14°
2026-04-17 18:32 -20.41178 -70.22325 9016 ft 286 kts 13°
2026-04-17 18:32 -20.39265 -70.21772 8665 ft 287 kts 13°
2026-04-17 18:32 -20.37330 -70.21213 8304 ft 287 kts 13°
2026-04-17 18:33 -20.35407 -70.20657 7939 ft 288 kts 13°
2026-04-17 18:33 -20.33483 -70.20100 7564 ft 289 kts 13°
2026-04-17 18:33 -20.31553 -70.19544 7193 ft 290 kts 13°
2026-04-17 18:33 -20.29611 -70.18983 6866 ft 288 kts 13°
2026-04-17 18:34 -20.28320 -70.18606 6681 ft 287 kts 15°
2026-04-17 18:34 -20.26087 -70.17145 6361 ft 283 kts 49°
2026-04-17 18:34 -20.25183 -70.15316 6138 ft 279 kts 77°
2026-04-17 18:34 -20.25174 -70.13313 6060 ft 266 kts 107°
2026-04-17 18:35 -20.26016 -70.11652 6058 ft 248 kts 137°
2026-04-17 18:35 -20.27443 -70.10746 6057 ft 228 kts 171°
2026-04-17 18:35 -20.28941 -70.10804 6065 ft 209 kts 199°
2026-04-17 18:35 -20.30286 -70.11257 6042 ft 203 kts 199°
2026-04-17 18:36 -20.31191 -70.11557 6031 ft 205 kts 199°
2026-04-17 18:36 -20.33046 -70.12244 5469 ft 218 kts 214°
2026-04-17 18:36 -20.34029 -70.13395 5318 ft 208 kts 246°
2026-04-17 18:36 -20.34579 -70.14812 5179 ft 202 kts 245°
2026-04-17 18:37 -20.35219 -70.16103 5020 ft 196 kts 234°
2026-04-17 18:37 -20.36279 -70.16965 4824 ft 193 kts 199°
2026-04-17 18:37 -20.37655 -70.17186 4382 ft 205 kts 186°
2026-04-17 18:37 -20.39103 -70.17297 3908 ft 215 kts 186°
2026-04-17 18:38 -20.40617 -70.17405 3555 ft 218 kts 186°
2026-04-17 18:38 -20.42071 -70.17494 3535 ft 204 kts 186°
2026-04-17 18:38 -20.43450 -70.17571 3486 ft 192 kts 185°
2026-04-17 18:38 -20.44778 -70.17618 3097 ft 186 kts 183°
2026-04-17 18:39 -20.45974 -70.17590 3327 ft 170 kts 181°
2026-04-17 18:39 -20.47153 -70.17587 3637 ft 179 kts 185°
2026-04-17 18:39 -20.48401 -70.17672 3634 ft 176 kts 189°
2026-04-17 18:39 -20.49615 -70.17821 3539 ft 172 kts 192°
2026-04-17 18:40 -20.50802 -70.18034 3551 ft 174 kts 187°
2026-04-17 18:40 -20.51997 -70.18102 3693 ft 173 kts 186°
2026-04-17 18:40 -20.53311 -70.18195 3907 ft 206 kts 187°
2026-04-17 18:40 -20.54873 -70.18322 4182 ft 242 kts 186°
2026-04-17 18:41 -20.56590 -70.18464 4450 ft 252 kts 186°
2026-04-17 18:41 -20.58357 -70.18613 4704 ft 255 kts 186°
2026-04-17 18:41 -20.60108 -70.18765 4951 ft 256 kts 186°
2026-04-17 18:41 -20.61921 -70.18923 5205 ft 258 kts 186°
2026-04-17 18:42 -20.63701 -70.19080 5454 ft 259 kts 186°
2026-04-17 18:42 -20.65501 -70.19240 5704 ft 260 kts 186°
2026-04-17 18:42 -20.67255 -70.19395 5946 ft 261 kts 186°
2026-04-17 18:42 -20.69139 -70.19563 6205 ft 263 kts 186°
2026-04-17 18:43 -20.70976 -70.19726 6457 ft 264 kts 186°
2026-04-17 18:43 -20.72824 -70.19890 6709 ft 265 kts 186°
2026-04-17 18:43 -20.74658 -70.20053 6957 ft 266 kts 186°
2026-04-17 18:43 -20.76518 -70.20219 7209 ft 268 kts 186°
2026-04-17 18:44 -20.78381 -70.20384 7459 ft 269 kts 186°
2026-04-17 18:44 -20.80260 -70.20551 7710 ft 270 kts 186°
2026-04-17 18:44 -20.82127 -70.20718 7959 ft 271 kts 186°
2026-04-17 18:44 -20.84016 -70.20885 8210 ft 273 kts 186°
2026-04-17 18:45 -20.85261 -70.20997 8374 ft 273 kts 186°
2026-04-17 18:45 -20.87791 -70.21222 8707 ft 275 kts 186°
2026-04-17 18:45 -20.89692 -70.21391 8956 ft 276 kts 186°
2026-04-17 18:45 -20.91604 -70.21561 9206 ft 277 kts 186°
2026-04-17 18:46 -20.93545 -70.21735 9458 ft 279 kts 186°
2026-04-17 18:46 -20.95473 -70.21906 9707 ft 280 kts 186°
2026-04-17 18:46 -20.97412 -70.22079 9956 ft 282 kts 186°
2026-04-17 18:46 -20.99373 -70.22255 10052 ft 286 kts 186°
2026-04-17 18:47 -21.00691 -70.22372 10046 ft 285 kts 186°
2026-04-17 18:47 -21.03334 -70.22608 10048 ft 285 kts 185°
2026-04-17 18:47 -21.05298 -70.22784 10048 ft 286 kts 185°
2026-04-17 18:47 -21.07287 -70.22961 10048 ft 286 kts 185°
2026-04-17 18:48 -21.08617 -70.23080 10048 ft 286 kts 185°
2026-04-17 18:48 -21.11241 -70.23315 10047 ft 286 kts 185°
2026-04-17 18:48 -21.13249 -70.23494 10047 ft 285 kts 185°
2026-04-17 18:48 -21.15233 -70.23671 10047 ft 286 kts 185°
2026-04-17 18:49 -21.16559 -70.23789 10047 ft 286 kts 185°
2026-04-17 18:49 -21.19205 -70.24026 10047 ft 286 kts 185°
2026-04-17 18:49 -21.21191 -70.24204 10047 ft 286 kts 185°
2026-04-17 18:49 -21.23069 -70.24744 10061 ft 285 kts 209°
2026-04-17 18:50 -21.24708 -70.25953 10059 ft 286 kts 217°
2026-04-17 18:50 -21.26290 -70.27229 10046 ft 285 kts 217°
2026-04-17 18:50 -21.27947 -70.28397 10049 ft 285 kts 202°
2026-04-17 18:50 -21.29878 -70.28886 10067 ft 286 kts 185°
2026-04-17 18:51 -21.31860 -70.28994 10037 ft 286 kts 181°
2026-04-17 18:51 -21.33827 -70.29081 9986 ft 285 kts 182°
2026-04-17 18:51 -21.35826 -70.29195 9935 ft 285 kts 183°
2026-04-17 18:51 -21.37773 -70.29313 9885 ft 285 kts 183°
2026-04-17 18:52 -21.39777 -70.29439 9834 ft 285 kts 183°
2026-04-17 18:52 -21.41763 -70.29566 9783 ft 285 kts 183°
2026-04-17 18:52 -21.43744 -70.29694 9733 ft 285 kts 183°
2026-04-17 18:52 -21.45725 -70.29823 9682 ft 284 kts 183°
2026-04-17 18:53 -21.47692 -70.29951 9632 ft 284 kts 183°
2026-04-17 18:53 -21.49687 -70.30081 9582 ft 284 kts 183°
2026-04-17 18:53 -21.51672 -70.30211 9531 ft 284 kts 183°
2026-04-17 18:53 -21.67356 -70.31235 9152 ft 284 kts 184°
2026-04-17 18:54 -21.88794 -70.32642 8606 ft 282 kts 184°
2026-04-17 18:54 -22.14181 -70.34309 7912 ft 270 kts 182°
2026-04-17 18:54 -22.43103 -70.36245 7191 ft 267 kts 182°
2026-04-17 18:54 -22.44962 -70.36359 7144 ft 266 kts 182°
2026-04-17 18:55 -22.46821 -70.36475 7099 ft 267 kts 182°
2026-04-17 18:55 -22.48683 -70.36596 7053 ft 267 kts 182°
2026-04-17 18:55 -22.50526 -70.36716 7008 ft 266 kts 182°
2026-04-17 18:55 -22.52390 -70.36839 6962 ft 266 kts 182°
2026-04-17 18:56 -22.54222 -70.36961 6916 ft 266 kts 182°
2026-04-17 18:56 -22.56070 -70.37083 6871 ft 266 kts 182°
2026-04-17 18:56 -22.57915 -70.37205 6825 ft 265 kts 182°
2026-04-17 18:56 -22.59763 -70.37328 6779 ft 265 kts 182°
2026-04-17 18:57 -22.61592 -70.37449 6734 ft 265 kts 182°
2026-04-17 18:57 -22.63422 -70.37570 6689 ft 265 kts 182°
2026-04-17 18:57 -22.65268 -70.37693 6643 ft 264 kts 182°
2026-04-17 18:57 -22.67094 -70.37814 6597 ft 264 kts 182°
2026-04-17 18:58 -22.68938 -70.37936 6551 ft 264 kts 182°
2026-04-17 18:58 -22.70745 -70.38057 6506 ft 264 kts 182°
2026-04-17 18:58 -22.72588 -70.38179 6460 ft 263 kts 182°
2026-04-17 18:58 -22.74397 -70.38300 6415 ft 263 kts 182°
2026-04-17 18:59 -22.75608 -70.38380 6385 ft 263 kts 182°
2026-04-17 18:59 -22.78051 -70.38543 6324 ft 263 kts 182°
2026-04-17 18:59 -22.79885 -70.38665 6278 ft 262 kts 182°
2026-04-17 18:59 -22.81704 -70.38786 6232 ft 262 kts 182°
2026-04-17 19:00 -22.83513 -70.38906 6187 ft 262 kts 182°
2026-04-17 19:00 -22.85332 -70.39027 6141 ft 261 kts 182°
2026-04-17 19:00 -22.87126 -70.39146 6096 ft 261 kts 182°
2026-04-17 19:00 -22.88957 -70.39269 6050 ft 261 kts 182°
2026-04-17 19:01 -22.90766 -70.39390 6004 ft 261 kts 182°
2026-04-17 19:01 -22.92599 -70.39507 5958 ft 267 kts 185°
2026-04-17 19:01 -22.94453 -70.39631 5910 ft 265 kts 185°
2026-04-17 19:01 -22.96265 -70.39754 5862 ft 263 kts 185°
2026-04-17 19:02 -22.98093 -70.39877 5815 ft 263 kts 185°
2026-04-17 19:02 -22.99915 -70.39999 5767 ft 262 kts 185°
2026-04-17 19:02 -23.01725 -70.40120 5720 ft 261 kts 185°
2026-04-17 19:02 -23.03546 -70.40242 5673 ft 260 kts 185°
2026-04-17 19:03 -23.18395 -70.41236 4588 ft 261 kts 185°
2026-04-17 19:03 -23.25200 -70.41872 3385 ft 252 kts 193°
2026-04-17 19:03 -23.26889 -70.42213 3279 ft 245 kts 190°
2026-04-17 19:03 -23.32044 -70.43007 2752 ft 240 kts 188°
2026-04-17 19:04 -23.35041 -70.43411 2451 ft 237 kts 186°
2026-04-17 19:04 -23.37174 -70.43638 2289 ft 216 kts 187°
2026-04-17 19:04 -23.38577 -70.43799 2183 ft 197 kts 187°
2026-04-17 19:04 -23.39954 -70.43963 1573 ft 198 kts 187°
2026-04-17 19:05 -23.41276 -70.44126 1154 ft 184 kts 187°
2026-04-17 19:05 -23.42456 -70.44282 809 ft 163 kts 188°
2026-04-17 19:05 -23.43516 -70.44400 560 ft 145 kts 185°
2026-04-17 19:05 -23.44480 -70.44507 396 ft 130 kts 187°
2026-04-17 19:06 -23.45009 -70.44573 379 ft 51 kts 187°
2026-04-17 19:06 -23.45219 -70.44517 374 ft 23 kts 93°
2026-04-17 19:06 -23.45161 -70.44398 378 ft 17 kts
2026-04-17 19:06 -23.45053 -70.44384 381 ft 13 kts
2026-04-17 19:07 -23.44997 -70.44377 382 ft 10 kts
2026-04-17 19:07 -23.44930 -70.44358 384 ft 5 kts 52°
2026-04-17 19:07 -23.44881 -70.44273 387 ft 14 kts 52°
2026-04-17 19:07 -23.44802 -70.44237 389 ft 11 kts 38°
2026-04-17 19:08 -23.44767 -70.44196 390 ft 10 kts 51°
2026-04-17 19:08 -23.44737 -70.44155 392 ft 0 kts 50°
2026-04-17 19:08 -23.44737 -70.44154 392 ft 0 kts 50°